Durant, OK

11:14 AM CDT on July 27, 2017 (GMT -0500)
Eaker

Weather History for KDUA - September, 2013

Change the Weather History Date:

Friday, September 13, 2013

  Actual Average (KMLC) Record (KMLC)
Temperature  
Mean Temperature 84 °F -  
Max Temperature 96 °F 85 °F 104 °F (2011)
Min Temperature 73 °F 64 °F 49 °F (1953)
Cooling Degree Days 20    
Growing Degree Days 34 (Base 50)    
Moisture  
Dew Point 68 °F    
Average Humidity 65    
Maximum Humidity 88    
Minimum Humidity 32    
Precipitation  
Precipitation 0.00 in - - ()
Sea Level Pressure  
Sea Level Pressure 29.97 in    
Wind  
Wind Speed 6 mph (NE)    
Max Wind Speed 20 mph    
Max Gust Speed 29 mph    
Visibility 10 miles    
Events      
Averages and records for this station are not official NWS values.
T = Trace of Precipitation, MM = Missing Value Source: NWS Daily Summary

Daily Weather History Graph

Daily Weather History Graph

Search for Another Location

Airport or City:

Trip Planner

Search our weather history database for the weather conditions in past years. The results will help you decide how hot, cold, wet, or windy it might be!

Date:

Astronomy

Sep. 13, 2013 Rise Set
Actual Time 7:07 AM CDT 7:34 PM CDT
Civil Twilight 6:42 AM CDT 7:59 PM CDT
Nautical Twilight 6:13 AM CDT 8:28 PM CDT
Astronomical Twilight 5:43 AM CDT 8:58 PM CDT
Moon 3:13 PM CDT (9/13) 12:50 AM CDT (9/13)
Length of Visible Light 13h 17m
Length of Day
12h 26m
First Quarter, 61% of the Moon is Illuminated
Sep 13
First Quarter
Sep 19
Full
Sep 26
Last Quarter
Oct 4
New
Oct 11
First Quarter

Hourly Weather History & Observations

Time (CDT) Temp. Heat Index Dew Point Humidity Pressure Visibility Wind Dir Wind Speed Gust Speed Precip Events Conditions
12:15 AM 77.0 °F - 69.8 °F 78% 30.01 in 10.0 mi NNE 3.5 mph - N/A   Clear
12:35 AM 77.0 °F - 69.8 °F 78% 30.01 in 10.0 mi Calm Calm - N/A   Clear
12:55 AM 77.0 °F - 69.8 °F 78% 30.00 in 10.0 mi North 4.6 mph - N/A   Clear
1:15 AM 77.0 °F - 69.8 °F 78% 30.00 in 10.0 mi Calm Calm - N/A   Clear
1:35 AM 77.0 °F - 69.8 °F 78% 30.00 in 10.0 mi WSW 4.6 mph - N/A   Clear
1:55 AM 75.2 °F - 69.8 °F 83% 30.00 in 10.0 mi NNW 3.5 mph - N/A   Clear
2:15 AM 77.0 °F - 69.8 °F 78% 30.00 in 10.0 mi North 4.6 mph - N/A   Clear
2:35 AM 75.2 °F - 69.8 °F 83% 30.00 in 10.0 mi NNW 4.6 mph - N/A   Clear
2:55 AM 75.2 °F - 69.8 °F 83% 30.00 in 7.0 mi Calm Calm - N/A   Clear
3:15 AM 75.2 °F - 69.8 °F 83% 29.99 in 7.0 mi Calm Calm - N/A   Clear
3:35 AM 75.2 °F - 69.8 °F 83% 29.99 in 10.0 mi NE 3.5 mph - N/A   Clear
3:55 AM 75.2 °F - 69.8 °F 83% 29.99 in 10.0 mi NNE 5.8 mph - N/A   Clear
4:15 AM 75.2 °F - 69.8 °F 83% 29.99 in 10.0 mi North 5.8 mph - N/A   Clear
4:35 AM 75.2 °F - 69.8 °F 83% 29.98 in 10.0 mi North 5.8 mph - N/A   Clear
4:55 AM 75.2 °F - 69.8 °F 83% 29.98 in 10.0 mi NNE 4.6 mph - N/A   Clear
5:15 AM 75.2 °F - 69.8 °F 83% 29.99 in 10.0 mi NNE 6.9 mph - N/A   Clear
5:35 AM 73.4 °F - 69.8 °F 88% 29.99 in 10.0 mi North 5.8 mph - N/A   Clear
5:55 AM 73.4 °F - 69.8 °F 88% 29.99 in 10.0 mi North 4.6 mph - N/A   Clear
6:15 AM 73.4 °F - 69.8 °F 88% 29.99 in 10.0 mi NNE 5.8 mph - N/A   Clear
6:35 AM 73.4 °F - 69.8 °F 88% 29.99 in 10.0 mi NNE 6.9 mph - N/A   Clear
6:55 AM 73.4 °F - 69.8 °F 88% 29.99 in 10.0 mi North 6.9 mph - N/A   Clear
7:15 AM 73.4 °F - 69.8 °F 88% 29.99 in 10.0 mi NNE 5.8 mph - N/A   Clear
7:35 AM 73.4 °F - 69.8 °F 88% 30.00 in 7.0 mi North 5.8 mph - N/A   Clear
7:55 AM 73.4 °F - 69.8 °F 88% 30.00 in 7.0 mi NNE 4.6 mph - N/A   Clear
8:15 AM 73.4 °F - 69.8 °F 88% 30.00 in 7.0 mi NNE 8.1 mph - N/A   Clear
8:35 AM 75.2 °F - 69.8 °F 83% 30.00 in 7.0 mi NE 4.6 mph - N/A   Clear
8:55 AM 77.0 °F - 69.8 °F 78% 30.01 in 10.0 mi ENE 4.6 mph - N/A   Clear
9:15 AM 78.8 °F - 69.8 °F 74% 30.01 in 10.0 mi East 5.8 mph - N/A   Clear
9:35 AM 80.6 °F 83.9 °F 69.8 °F 70% 30.01 in 10.0 mi East 5.8 mph - N/A   Clear
9:55 AM 82.4 °F 86.3 °F 69.8 °F 66% 30.01 in 10.0 mi ESE 6.9 mph - N/A   Clear
10:15 AM 86.0 °F 89.4 °F 68.0 °F 55% 30.01 in 10.0 mi ESE 9.2 mph - N/A   Clear
10:35 AM 86.0 °F 89.4 °F 68.0 °F 55% 30.01 in 10.0 mi East 8.1 mph - N/A   Clear
10:55 AM 87.8 °F 91.4 °F 68.0 °F 52% 30.01 in 10.0 mi ESE 8.1 mph - N/A   Clear
11:15 AM 89.6 °F 93.4 °F 68.0 °F 49% 30.00 in 10.0 mi ESE 8.1 mph - N/A   Clear
11:35 AM 89.6 °F 93.4 °F 68.0 °F 49% 30.00 in 10.0 mi East 6.9 mph 17.3 mph N/A   Clear
11:55 AM 89.6 °F 93.4 °F 68.0 °F 49% 30.00 in 10.0 mi ESE 6.9 mph - N/A   Clear
12:15 PM 89.6 °F 93.4 °F 68.0 °F 49% 29.99 in 10.0 mi East 5.8 mph - N/A   Clear
12:35 PM 91.4 °F 95.4 °F 68.0 °F 46% 29.98 in 10.0 mi NE 6.9 mph - N/A   Clear
12:55 PM 91.4 °F 95.4 °F 68.0 °F 46% 29.98 in 10.0 mi ENE 9.2 mph - N/A   Clear
1:15 PM 93.2 °F 96.2 °F 66.2 °F 41% 29.97 in 10.0 mi SE 4.6 mph - N/A   Scattered Clouds
1:35 PM 95.0 °F 98.5 °F 66.2 °F 39% 29.96 in 10.0 mi NE 3.5 mph - N/A   Mostly Cloudy
1:55 PM 95.0 °F 97.0 °F 64.4 °F 36% 29.95 in 10.0 mi ESE 5.8 mph - N/A   Mostly Cloudy
2:15 PM 95.0 °F 97.0 °F 64.4 °F 36% 29.94 in 10.0 mi ESE 6.9 mph - N/A   Scattered Clouds
2:35 PM 96.8 °F 98.0 °F 62.6 °F 32% 29.93 in 10.0 mi East 6.9 mph - N/A   Mostly Cloudy
2:55 PM 96.8 °F 99.0 °F 64.4 °F 34% 29.92 in 10.0 mi NE 9.2 mph - N/A   Mostly Cloudy
3:15 PM 95.0 °F 96.0 °F 62.6 °F 34% 29.91 in 10.0 mi NNE 5.8 mph - N/A   Scattered Clouds
3:35 PM 96.8 °F 98.0 °F 62.6 °F 32% 29.89 in 10.0 mi ENE 8.1 mph - N/A   Scattered Clouds
3:55 PM 95.0 °F 96.0 °F 62.6 °F 34% 29.89 in 10.0 mi NNW 3.5 mph - N/A   Scattered Clouds
4:15 PM 95.0 °F 96.0 °F 62.6 °F 34% 29.89 in 10.0 mi ENE 10.4 mph 17.3 mph N/A   Scattered Clouds
4:35 PM 95.0 °F 97.0 °F 64.4 °F 36% 29.89 in 10.0 mi ENE 18.4 mph 25.3 mph N/A   Scattered Clouds
4:55 PM 93.2 °F 96.2 °F 66.2 °F 41% 29.90 in 10.0 mi ENE 19.6 mph - N/A   Clear
5:15 PM 89.6 °F 92.2 °F 66.2 °F 46% 29.90 in 10.0 mi ENE 19.6 mph 28.8 mph N/A   Clear
5:35 PM 87.8 °F 89.4 °F 64.4 °F 46% 29.91 in 10.0 mi NE 17.3 mph 26.5 mph N/A   Clear
5:55 PM 87.8 °F 89.4 °F 64.4 °F 46% 29.91 in 10.0 mi ENE 16.1 mph 21.9 mph N/A   Clear
6:15 PM 86.0 °F 87.3 °F 64.4 °F 48% 29.90 in 10.0 mi NE 15.0 mph 19.6 mph N/A   Clear
6:35 PM 86.0 °F 88.2 °F 66.2 °F 51% 29.90 in 10.0 mi ENE 12.7 mph 19.6 mph N/A   Clear
6:55 PM 84.2 °F 87.3 °F 68.0 °F 58% 29.91 in 10.0 mi ENE 13.8 mph - N/A   Clear
7:15 PM 82.4 °F 85.4 °F 68.0 °F 62% 29.92 in 10.0 mi ENE 8.1 mph - N/A   Clear
7:35 PM 80.6 °F 83.2 °F 68.0 °F 65% 29.92 in 10.0 mi ENE 8.1 mph - N/A   Clear
7:55 PM 80.6 °F 83.2 °F 68.0 °F 65% 29.93 in 10.0 mi ENE 4.6 mph - N/A   Clear
8:15 PM 78.8 °F - 68.0 °F 69% 29.94 in 10.0 mi NE 8.1 mph - N/A   Clear
8:35 PM 80.6 °F 83.9 °F 69.8 °F 70% 29.94 in 10.0 mi NE 8.1 mph - N/A   Clear
8:55 PM 80.6 °F 83.9 °F 69.8 °F 70% 29.95 in 10.0 mi ENE 6.9 mph - N/A   Clear
9:15 PM 78.8 °F - 69.8 °F 74% 29.95 in 10.0 mi ENE 8.1 mph - N/A   Scattered Clouds
9:35 PM 78.8 °F - 69.8 °F 74% 29.96 in 10.0 mi ENE 5.8 mph - N/A   Scattered Clouds
9:55 PM 78.8 °F - 69.8 °F 74% 29.96 in 10.0 mi NE 5.8 mph - N/A   Mostly Cloudy
10:15 PM 78.8 °F - 69.8 °F 74% 29.96 in 10.0 mi ENE 6.9 mph - N/A   Scattered Clouds
10:35 PM 78.8 °F - 69.8 °F 74% 29.96 in 10.0 mi ENE 6.9 mph - N/A   Clear
10:55 PM 78.8 °F - 69.8 °F 74% 29.96 in 10.0 mi ENE 5.8 mph - N/A   Clear
11:15 PM 77.0 °F - 69.8 °F 78% 29.97 in 10.0 mi NE 4.6 mph - N/A   Scattered Clouds
11:35 PM 77.0 °F - 69.8 °F 78% 29.97 in 10.0 mi NE 3.5 mph - N/A   Mostly Cloudy
11:55 PM 77.0 °F - 69.8 °F 78% 29.96 in 10.0 mi ENE 5.8 mph - N/A   Mostly Cloudy